#timestamp,LO_Frequency,Hit,StdDev 
1504202415.9,286046999.4,N,1.4
1504202435.7,286046999.0,N,1.4
1504202455.5,286046998.4,N,1.4
1504202475.4,286046998.4,N,1.4
1504202495.2,286046998.4,N,1.4
1504202515.0,286046998.8,N,1.3
1504202515.9,286046998.8,N,1.3
1504202535.8,286047000.8,N,1.3
1504202555.6,286046998.9,N,1.3
1504202575.5,286047001.2,N,1.3
1504202595.3,286046998.7,N,1.3
1504202615.1,286047000.8,N,1.3
1504202635.9,286046998.3,N,1.3
1504202655.7,286046998.3,N,1.3
1504202675.6,286047001.2,N,1.4
1504202695.4,286046998.3,N,1.4
1504202715.2,286046998.2,N,1.3
1504202735.1,286047000.5,N,1.3
1504202736.0,286047000.5,N,1.2
1504202755.8,286046999.7,N,1.2
1504202775.6,286047001.0,N,1.2
1504202795.5,286047000.6,N,1.2
1504202815.3,286047002.7,N,1.3
1504202835.2,286047002.8,N,1.4
1504202855.9,286047002.8,N,1.4
1504202875.7,286047002.8,N,1.5
1504202895.6,286047002.4,N,1.6
1504202915.4,286047000.2,N,1.5
1504202935.3,286046999.9,N,1.5
1504202955.1,286047000.1,N,1.5
1504202956.0,286047000.1,N,1.5
1504202975.8,286046999.7,N,1.5
1504202995.7,286047001.5,N,1.5
1504203015.5,286047002.7,N,1.5
1504203035.4,286047002.2,N,1.5
1504203055.2,286047002.6,N,1.5
1504203075.0,286047004.0,N,1.6
1504203075.9,286047004.0,N,1.7
1504203095.8,286047004.3,N,1.8
1504203115.6,286047004.0,N,1.8
1504203135.5,286047001.7,N,1.8
1504203155.3,286047004.4,N,1.9
1504203175.1,286047004.2,N,1.8
1504203195.9,286047003.6,N,1.8
1504203215.7,286047005.8,Y,0.0
1504203235.6,286047001.4,P,0.2
1504203255.4,286047001.3,P,0.2
1504203275.2,286047004.3,P,1.2
1504203295.1,286047001.3,N,1.2
1504203296.0,286047001.3,N,1.1
1504203315.8,286047004.3,Y,0.0
1504203335.7,286047002.8,P,0.5
1504203355.5,286046999.7,N,1.3
1504203375.3,286047002.2,N,1.2
1504203395.2,286047002.7,N,1.1
1504203415.0,286047002.4,N,1.1
1504203415.9,286047002.4,N,1.0
1504203435.7,286047000.1,N,1.1
1504203455.6,286047002.8,N,1.1
1504203475.4,286047002.7,N,1.1
1504203495.3,286046999.8,N,1.2
1504203515.1,286047000.1,N,1.2
1504203516.0,286047000.1,N,1.3
1504203535.8,286047002.8,N,1.3
1504203555.7,286047000.2,N,1.3
1504203575.5,286047001.8,N,1.2
1504203595.4,286047001.5,N,1.2
1504203615.2,286047001.9,N,1.2
1504203635.0,286047001.7,N,1.1
1504203635.9,286047001.7,N,1.1
1504203655.8,286047004.2,Y,0.0
1504203675.6,286047002.5,P,0.5
1504203695.4,286047002.3,P,0.4
1504203715.3,286046999.7,N,1.1
1504203735.1,286046999.8,N,1.2
1504203755.9,286047000.2,N,1.2
1504203775.7,286047000.1,N,1.1
1504203795.5,286047002.3,N,1.1
1504203815.4,286047000.4,N,1.1
1504203835.2,286047000.4,N,1.1
1504203855.1,286047000.2,N,1.0
1504203856.0,286047000.2,N,1.0
1504203875.8,286047000.3,N,1.0
1504203895.6,286046999.8,N,1.0
1504203915.5,286046999.7,N,1.0
1504203935.3,286047002.7,N,1.1
1504203955.2,286046999.8,N,1.1
1504203975.9,286047000.5,N,1.0
1504203995.7,286047000.6,N,1.0
1504204015.6,286047002.4,N,1.0
1504204035.4,286047002.4,N,1.1
1504204055.2,286047002.4,N,1.1
1504204075.1,286047002.4,N,1.1
1504204076.0,286047002.4,N,1.1
1504204095.8,286047002.2,N,1.1
1504204115.7,286047002.2,N,1.1
1504204135.5,286047002.6,N,1.1
1504204155.3,286047002.5,N,1.1
1504204175.2,286047002.2,N,1.1
1504204195.0,286047002.5,N,1.1
1504204195.9,286047002.5,N,1.2
1504204215.8,286047002.8,N,1.2
1504204235.6,286047000.2,N,1.2
1504204255.4,286047002.8,N,1.2
1504204275.3,286047000.1,N,1.2
1504204295.1,286047002.5,N,1.2
1504204315.8,286047002.7,N,1.1
1504204335.7,286047000.2,N,1.2
1504204355.5,286047000.1,N,1.2
1504204375.4,286047000.2,N,1.2
1504204395.2,286047000.1,N,1.2
1504204415.0,286047002.8,N,1.2
1504204415.9,286047002.8,N,1.2
1504204435.8,286047002.0,N,1.1
1504204455.6,286047001.4,N,1.1
1504204475.5,286047003.9,Y,0.0
1504204495.3,286047000.1,P,0.8
1504204515.1,286047002.7,P,1.1
1504204535.9,286047011.9,P,4.6
1504204555.7,286047000.2,N,4.4
1504204575.6,286046999.7,N,4.2
1504204595.4,286047000.1,N,4.0
1504204615.2,286047000.7,N,3.8
1504204635.1,286047000.5,N,3.6
1504204636.0,286047000.5,N,3.5
1504204655.8,286047000.9,N,3.3
1504204675.7,286047000.9,N,3.2
1504204695.5,286046999.8,N,3.1
1504204715.3,286047002.5,N,3.0
1504204735.2,286046999.9,N,2.9
1504204755.0,286047001.0,N,2.8
1504204755.9,286047001.0,N,2.8
1504204775.7,286047000.7,N,2.7
1504204795.6,286046999.7,N,2.6
1504204815.4,286047000.0,N,2.6
1504204835.3,286046999.8,N,2.5
1504204855.1,286047000.7,N,2.5
1504204856.0,286047000.7,N,2.4
1504204875.8,286047000.1,N,2.4
1504204895.7,286047000.0,N,2.3
1504204915.5,286047002.1,N,2.3
1504204935.4,286047002.4,N,2.3
1504204955.2,286046999.8,N,2.3
1504204975.0,286047002.4,N,2.2
1504204975.9,286047002.4,N,2.2
1504204995.8,286047002.6,N,2.2
1504205015.6,286047002.5,N,2.2
1504205035.4,286047000.5,N,2.2
1504205055.3,286047002.7,N,1.0
1504205075.1,286046999.7,N,1.0
1504205095.9,286047000.7,N,1.0
1504205115.7,286046998.4,N,1.1
1504205135.5,286046998.6,N,1.2
1504205155.4,286047000.5,N,1.2
1504205175.2,286046998.4,N,1.2
1504205195.1,286046998.8,N,1.3
1504205196.0,286046998.8,N,1.3
1504205215.8,286047000.9,N,1.3
1504205235.6,286046998.6,N,1.3
1504205255.5,286046998.1,N,1.4
1504205275.3,286046998.5,N,1.4
1504205295.1,286046998.5,N,1.5
1504205315.9,286046998.3,N,1.5
1504205335.7,286047000.6,N,1.5
1504205355.6,286047000.7,N,1.5
1504205375.4,286046999.8,N,1.5
1504205395.2,286047002.5,N,1.5
1504205415.1,286047002.3,N,1.6
1504205416.0,286047002.3,N,1.6
1504205435.8,286047000.4,N,1.6
1504205455.7,286047002.8,N,1.7
1504205475.5,286046999.8,N,1.6
1504205495.3,286046999.8,N,1.6
1504205515.2,286047000.0,N,1.6
1504205535.0,286047000.3,N,1.5
1504205535.9,286047000.3,N,1.5
1504205555.8,286047001.2,N,1.4
1504205575.6,286047002.6,N,1.5
1504205595.4,286047002.7,N,1.5
1504205615.3,286047002.4,N,1.5
1504205635.1,286047002.1,N,1.6
1504205655.9,286047002.2,N,1.6
1504205675.7,286047002.3,N,1.6
1504205695.5,286047002.3,N,1.6
1504205715.4,286047001.9,N,1.5
1504205735.2,286047002.0,N,1.5
1504205755.0,286047000.0,N,1.5
1504205756.0,286047000.0,N,1.5
1504205775.8,286047002.8,N,1.5
1504205795.6,286047002.3,N,1.4
1504205815.5,286046999.9,N,1.3
1504205835.3,286047000.4,N,1.2
1504205855.1,286047000.4,N,1.1
1504205875.9,286047000.0,N,1.1
1504205895.7,286047000.4,N,1.1
1504205915.6,286047002.7,N,1.1
1504205935.4,286047000.1,N,1.1
1504205955.2,286047000.4,N,1.1
1504205975.1,286047000.2,N,1.1
1504205976.0,286047000.2,N,1.1
1504205995.8,286046999.7,N,1.1
